OK1HRA-8 Weather Reports


time (UTC)temp
C
wind
direction
speed
KPH
gust
KPH
rain 1hr
cm
rain 24hr
cm
rain mn
cm
humidity
%
barometer
mb
20260509221146 8 -1 0.0 0.0 0.00 0.00 0.00 7 1002.3
20260509220639 8 -1 0.0 0.0 0.00 0.00 0.00 7 1002.5
20260509220132 8 -1 9.7 14.5 0.00 0.00 0.00 7 1002.8
20260509215624 8 135 0.0 0.0 0.00 0.00 0.00 7 1002.8
20260509215116 8 -1 8.0 12.9 0.00 0.00 0.00 7 1002.7
20260509214609 9 135 9.7 16.1 0.00 0.00 0.00 7 1002.5
20260509214101 9 -1 9.7 16.1 0.00 0.00 0.00 7 1002.6
20260509213554 9 -1 11.3 19.3 0.00 0.00 0.00 7 1002.6
20260509213046 9 135 11.3 17.7 0.00 0.00 0.00 7 1002.4
20260509212539 9 90 11.3 17.7 0.00 0.00 0.00 7 1002.5
20260509212032 9 90 11.3 19.3 0.00 0.00 0.00 7 1002.1
20260509211525 9 45 9.7 16.1 0.00 0.00 0.00 7 1002.6
20260509211017 10 90 9.7 16.1 0.00 0.00 0.00 7 1002.4
20260509210509 10 90 9.7 14.5 0.00 0.00 0.00 7 1002.4
20260509210001 10 -1 9.7 14.5 0.00 0.00 0.00 7 1002.6
20260509205454 10 90 8.0 14.5 0.00 0.00 0.00 7 1002.4
20260509204947 10 90 8.0 14.5 0.00 0.00 0.00 7 1002.6
20260509204440 10 90 9.7 16.1 0.00 0.00 0.00 7 1002.4
20260509203933 10 90 9.7 14.5 0.00 0.00 0.00 7 1002.4
20260509203426 10 90 11.3 16.1 0.00 0.00 0.00 7 1002.0
20260509202918 10 135 8.0 16.1 0.00 0.00 0.00 6 1003.0
20260509202411 10 -1 8.0 14.5 0.00 0.00 0.00 6 1002.5
20260509201903 10 -1 8.0 14.5 0.00 0.00 0.00 6 1002.8
20260509201356 10 -1 8.0 17.7 0.00 0.00 0.00 6 1003.1
20260509200849 10 -1 0.0 0.0 0.00 0.00 0.00 6 1002.8
20260509200341 10 90 9.7 14.5 0.00 0.00 0.00 6 1002.8
20260509195834 10 90 9.7 16.1 0.00 0.00 0.00 6 1002.8
20260509195327 10 90 9.7 16.1 0.00 0.00 0.00 6 1002.4
20260509194819 10 90 9.7 17.7 0.00 0.00 0.00 6 1002.0
20260509194312 10 90 11.3 17.7 0.00 0.00 0.00 6 1001.8
20260509193804 11 90 9.7 17.7 0.00 0.00 0.00 6 1002.1
20260509193256 11 90 12.9 17.7 0.00 0.00 0.00 6 1001.9
20260509192749 11 90 9.7 16.1 0.00 0.00 0.00 6 1002.6
20260509192242 11 90 8.0 12.9 0.00 0.00 0.00 6 1002.2
20260509191734 11 90 9.7 14.5 0.00 0.00 0.00 6 1002.1
20260509191226 11 -1 9.7 16.1 0.00 0.00 0.00 6 1002.0
20260509190719 11 90 8.0 14.5 0.00 0.00 0.00 6 1001.6
20260509190212 11 90 11.3 19.3 0.00 0.00 0.00 6 1001.3
20260509185704 11 45 9.7 17.7 0.00 0.00 0.00 6 1001.5
20260509185157 11 -1 11.3 17.7 0.00 0.00 0.00 7 1000.9
20260509184649 11 90 11.3 19.3 0.00 0.00 0.00 7 1000.1
20260509184142 12 90 12.9 22.5 0.00 0.00 0.00 6 1000.8
20260509183634 12 90 11.3 22.5 0.00 0.00 0.00 6 1000.4
20260509183127 12 90 14.5 24.1 0.00 0.00 0.00 6 1000.4
20260509182619 12 45 16.1 30.6 0.00 0.00 0.00 6 1000.2
20260509182112 12 45 14.5 27.4 0.00 0.00 0.00 6 1000.4
20260509181605 12 90 17.7 29.0 0.00 0.00 0.00 6 999.1
20260509181057 12 45 14.5 24.1 0.00 0.00 0.00 6 999.9
20260509180549 13 90 14.5 25.7 0.00 0.00 0.00 6 1000.3
20260509180042 13 90 12.9 20.9 0.00 0.00 0.00 6 1000.8
20260509175535 13 45 14.5 24.1 0.00 0.00 0.00 6 1000.0
20260509175028 13 90 12.9 24.1 0.00 0.00 0.00 6 1000.7
20260509174521 13 90 9.7 16.1 0.00 0.00 0.00 6 1001.6
20260509174014 13 90 11.3 17.7 0.00 0.00 0.00 5 1001.4
20260509173506 13 45 12.9 19.3 0.00 0.00 0.00 5 1001.5
20260509172959 13 45 11.3 20.9 0.00 0.00 0.00 6 1001.4
20260509172452 13 45 12.9 20.9 0.00 0.00 0.00 5 1000.7
20260509171944 14 90 9.7 17.7 0.00 0.00 0.00 5 1001.8
20260509171437 14 45 12.9 22.5 0.00 0.00 0.00 5 1000.5
20260509170929 14 45 12.9 22.5 0.00 0.00 0.00 5 1001.0
20260509170421 14 45 11.3 25.7 0.00 0.00 0.00 5 1000.3
20260509165914 14 45 16.1 27.4 0.00 0.00 0.00 5 1000.6
20260509165406 15 45 11.3 22.5 0.00 0.00 0.00 5 999.7
20260509164859 15 -1 11.3 17.7 0.00 0.00 0.00 4 1003.2
20260509164352 15 90 9.7 19.3 0.00 0.00 0.00 4 1002.7
20260509163844 15 -1 11.3 19.3 0.00 0.00 0.00 5 1001.9
20260509163337 15 90 14.5 24.1 0.00 0.00 0.00 5 1000.4
20260509162830 15 90 12.9 19.3 0.00 0.00 0.00 5 1003.2
20260509162322 15 -1 11.3 19.3 0.00 0.00 0.00 4 1003.6
20260509161814 15 45 11.3 19.3 0.00 0.00 0.00 4 1005.2
20260509161307 15 45 11.3 17.7 0.00 0.00 0.00 5 1002.0
20260509160759 15 -1 9.7 16.1 0.00 0.00 0.00 5 1002.0
20260509160252 15 -1 12.9 24.1 0.00 0.00 0.00 5 1000.4
20260509155745 15 45 12.9 22.5 0.00 0.00 0.00 5 1000.4
20260509155237 15 90 14.5 20.9 0.00 0.00 0.00 4 1002.6
20260509154729 15 90 12.9 20.9 0.00 0.00 0.00 4 1003.3
20260509154222 15 -1 16.1 24.1 0.00 0.00 0.00 4 1002.4
20260509153715 15 135 9.7 19.3 0.00 0.00 0.00 4 1006.3
20260509153207 15 90 14.5 22.5 0.00 0.00 0.00 5 1002.5
20260509152700 15 45 12.9 24.1 0.00 0.00 0.00 5 1001.0
20260509152152 15 45 12.9 20.9 0.00 0.00 0.00 5 1001.6
20260509151644 15 90 11.3 20.9 0.00 0.00 0.00 5 1003.9
20260509151136 15 45 14.5 24.1 0.00 0.00 0.00 5 1002.3
20260509150629 15 90 12.9 22.5 0.00 0.00 0.00 5 1003.0
20260509150122 15 45 16.1 29.0 0.00 0.00 0.00 5 1002.2
20260509145614 15 0 14.5 20.9 0.00 0.00 0.00 5 1001.1
20260509145107 15 45 12.9 22.5 0.00 0.00 0.00 5 1001.6
20260509144559 15 45 9.7 16.1 0.00 0.00 0.00 5 1000.7
20260509144051 15 45 12.9 19.3 0.00 0.00 0.00 5 999.3
20260509143544 16 180 11.3 19.3 0.00 0.00 0.00 4 1008.5
20260509143038 15 45 11.3 20.9 0.00 0.00 0.00 5 1001.7
20260509142529 15 45 12.9 20.9 0.00 0.00 0.00 5 1000.7
20260509142022 15 90 11.3 16.1 0.00 0.00 0.00 4 1003.7
20260509141514 15 -1 11.3 16.1 0.00 0.00 0.00 5 1004.2
20260509141007 14 45 12.9 19.3 0.00 0.00 0.00 5 1000.1
20260509140459 14 45 14.5 20.9 0.00 0.00 0.00 5 1000.3
20260509135951 15 45 0.0 0.0 0.00 0.00 0.00 5 1000.7
20260509135444 16 90 0.0 0.0 0.00 0.00 0.00 4 1004.7
20260509134937 15 90 0.0 0.0 0.00 0.00 0.00 4 1007.3
20260509134429 15 90 4.8 4.8 0.00 0.00 0.00 4 1006.6
20260509133922 15 -1 9.7 17.7 0.00 0.00 0.00 4 1005.3
20260509133414 15 -1 12.9 22.5 0.00 0.00 0.00 4 1007.8
20260509132907 15 90 14.5 33.8 0.00 0.00 0.00 6 1002.6
20260509132400 14 45 9.7 22.5 0.00 0.00 0.00 5 1003.5
20260509131853 14 45 11.3 24.1 0.00 0.00 0.00 5 1003.2
20260509131346 14 45 11.3 20.9 0.00 0.00 0.00 5 1003.1
20260509130839 13 90 11.3 19.3 0.00 0.00 0.00 5 1004.1
20260509130331 13 90 12.9 22.5 0.00 0.00 0.00 6 1003.6
20260509125823 13 45 14.5 20.9 0.00 0.00 0.00 6 1002.1
20260509125316 13 45 12.9 20.9 0.00 0.00 0.00 6 1001.5
20260509124809 14 45 11.3 17.7 0.00 0.00 0.00 6 1001.5
20260509124302 14 45 11.3 17.7 0.00 0.00 0.00 5 1003.0
20260509123755 14 45 14.5 20.9 0.00 0.00 0.00 5 1000.8
20260509123248 14 -1 8.0 11.3 0.00 0.00 0.00 4 1007.2
20260509122741 14 90 11.3 17.7 0.00 0.00 0.00 5 1003.7
20260509122234 15 45 12.9 20.9 0.00 0.00 0.00 5 1004.1
20260509121727 15 270 0.0 0.0 0.00 0.00 0.00 5 1004.0
20260509121220 15 0 0.0 0.0 0.00 0.00 0.00 5 1001.8
20260509120713 15 0 0.0 0.0 0.00 0.00 0.00 5 1004.5
20260509120205 14 0 0.0 0.0 0.00 0.00 0.00 5 1005.6
20260509115658 14 45 0.0 0.0 0.00 0.00 0.00 5 1006.2
20260509115150 13 45 0.0 0.0 0.00 0.00 0.00 5 1002.8
20260509114643 14 45 0.0 0.0 0.00 0.00 0.00 5 1002.2
20260509114136 13 315 0.0 0.0 0.00 0.00 0.00 5 1004.4
20260509113628 13 45 0.0 0.0 0.00 0.00 0.00 5 1000.2
20260509113120 13 90 9.7 17.7 0.00 0.00 0.00 6 1004.1
20260509112612 13 45 12.9 20.9 0.00 0.00 0.00 5 1002.4
20260509112105 15 -1 0.0 0.0 0.00 0.00 0.00 5 1003.5
20260509111557 15 45 9.7 16.1 0.00 0.00 0.00 5 1005.4
20260509111049 13 0 14.5 24.1 0.00 0.00 0.00 6 1002.5
20260509110541 13 337 12.9 20.9 0.00 0.00 0.00 5 1001.8
20260509110033 14 45 12.9 20.9 0.00 0.00 0.00 5 1001.7
20260509105525 14 135 9.7 17.7 0.00 0.00 0.00 5 1006.6
20260509105018 14 -1 6.4 8.0 0.00 0.00 0.00 5 1004.3
20260509104510 14 45 14.5 17.7 0.00 0.00 0.00 4 1004.5
20260509104002 13 45 9.7 17.7 0.00 0.00 0.00 6 1001.4
20260509103455 13 90 0.0 0.0 0.00 0.00 0.00 5 1004.4
20260509102948 13 90 9.7 14.5 0.00 0.00 0.00 5 1003.3
20260509102441 13 90 11.3 16.1 0.00 0.00 0.00 5 1005.7
20260509101934 12 90 9.7 17.7 0.00 0.00 0.00 5 1002.8
20260509101427 12 45 9.7 14.5 0.00 0.00 0.00 6 1001.7
20260509100920 13 90 0.0 0.0 0.00 0.00 0.00 5 1005.3
20260509100413 13 225 8.0 9.7 0.00 0.00 0.00 5 1007.1
20260509095906 13 135 0.0 0.0 0.00 0.00 0.00 5 1008.1
20260509095359 13 135 8.0 12.9 0.00 0.00 0.00 5 1006.8
20260509094851 12 90 8.0 12.9 0.00 0.00 0.00 5 1006.8
20260509094343 12 90 9.7 16.1 0.00 0.00 0.00 6 1004.5
20260509093835 12 45 0.0 0.0 0.00 0.00 0.00 6 1002.6
20260509093327 13 45 0.0 0.0 0.00 0.00 0.00 6 1003.1
20260509092820 13 90 0.0 0.0 0.00 0.00 0.00 6 1007.9
20260509092313 12 90 0.0 0.0 0.00 0.00 0.00 6 1003.2
20260509091805 13 135 0.0 0.0 0.00 0.00 0.00 5 1008.7
20260509091258 12 -1 0.0 0.0 0.00 0.00 0.00 6 1006.3
20260509090751 12 90 0.0 0.0 0.00 0.00 0.00 6 1004.8
20260509090243 12 90 0.0 0.0 0.00 0.00 0.00 6 1005.5
20260509085736 12 90 0.0 0.0 0.00 0.00 0.00 6 1002.7
20260509085228 12 -1 8.0 12.9 0.00 0.00 0.00 5 1006.9
20260509084721 12 180 8.0 12.9 0.00 0.00 0.00 5 1007.5
20260509084214 12 90 9.7 12.9 0.00 0.00 0.00 6 1006.2
20260509083707 11 135 9.7 16.1 0.00 0.00 0.00 6 1007.1
20260509083200 11 135 9.7 14.5 0.00 0.00 0.00 6 1009.0
20260509082653 11 90 8.0 9.7 0.00 0.00 0.00 7 1005.6
20260509082146 11 90 9.7 16.1 0.00 0.00 0.00 7 1004.9
20260509081639 11 67 12.9 16.1 0.00 0.00 0.00 7 1003.9
20260509081132 11 45 8.0 11.3 0.00 0.00 0.00 7 1005.4
20260509080625 10 90 9.7 16.1 0.00 0.00 0.00 7 1005.3
20260509080118 11 90 0.0 0.0 0.00 0.00 0.00 6 1008.9
20260509075611 10 45 0.0 0.0 0.00 0.00 0.00 7 1006.5
20260509075103 10 45 0.0 0.0 0.00 0.00 0.00 6 1006.7
20260509074556 11 45 0.0 0.0 0.00 0.00 0.00 6 1007.9
20260509074048 10 90 0.0 0.0 0.00 0.00 0.00 6 1007.9
20260509073540 11 135 0.0 0.0 0.00 0.00 0.00 6 1009.8
20260509073033 10 45 0.0 0.0 0.00 0.00 0.00 7 1003.7
20260509072526 10 90 0.0 0.0 0.00 0.00 0.00 7 1005.9
20260509072019 10 -1 8.0 11.3 0.00 0.00 0.00 7 1008.3
20260509071510 10 135 0.0 0.0 0.00 0.00 0.00 7 1007.5
20260509071003 10 135 0.0 0.0 0.00 0.00 0.00 7 1007.7
20260509070456 9 135 8.0 12.9 0.00 0.00 0.00 7 1008.0
20260509065949 9 90 4.8 9.7 0.00 0.00 0.00 7 1008.5
20260509065442 8 45 0.0 0.0 0.00 0.00 0.00 7 1005.2
20260509064935 9 45 8.0 11.3 0.00 0.00 0.00 8 1004.9
20260509064427 9 90 0.0 0.0 0.00 0.00 0.00 7 1006.2
20260509063920 9 90 0.0 0.0 0.00 0.00 0.00 7 1008.1
20260509063414 9 45 0.0 0.0 0.00 0.00 0.00 7 1007.9
20260509062906 9 45 0.0 0.0 0.00 0.00 0.00 8 1007.7
20260509062359 8 45 0.0 0.0 0.00 0.00 0.00 8 1004.2
20260509061851 8 90 8.0 12.9 0.00 0.00 0.00 7 1005.7
20260509061344 8 45 0.0 0.0 0.00 0.00 0.00 7 1006.4
20260509060837 8 90 0.0 0.0 0.00 0.00 0.00 7 1005.6
20260509060329 8 90 0.0 0.0 0.00 0.00 0.00 7 1005.0
20260509055822 8 90 0.0 0.0 0.00 0.00 0.00 7 1007.1
20260509055315 7 135 0.0 0.0 0.00 0.00 0.00 7 1006.6
20260509054807 7 112 0.0 0.0 0.00 0.00 0.00 7 1007.1
20260509054300 7 180 0.0 0.0 0.00 0.00 0.00 7 1008.5
20260509053752 7 90 0.0 0.0 0.00 0.00 0.00 8 1008.0
20260509053245 6 45 0.0 0.0 0.00 0.00 0.00 8 1006.9
20260509052738 6 45 0.0 0.0 0.00 0.00 0.00 8 1007.3
20260509052230 6 22 0.0 0.0 0.00 0.00 0.00 8 1005.9
20260509051723 6 0 0.0 0.0 0.00 0.00 0.00 8 1005.6
20260509051216 6 0 0.0 0.0 0.00 0.00 0.00 8 1006.3
20260509050709 6 0 0.0 0.0 0.00 0.00 0.00 9 1006.0
20260509050202 6 45 0.0 0.0 0.00 0.00 0.00 8 1005.7
20260509045655 6 45 0.0 0.0 0.00 0.00 0.00 8 1006.4
20260509045147 6 0 0.0 0.0 0.00 0.00 0.00 8 1005.3
20260509044640 6 45 0.0 0.0 0.00 0.00 0.00 8 1006.3
20260509044132 6 0 0.0 0.0 0.00 0.00 0.00 8 1007.1
20260509043625 6 0 0.0 0.0 0.00 0.00 0.00 9 1006.0
20260509043118 6 0 0.0 0.0 0.00 0.00 0.00 9 1006.4
20260509042610 5 337 0.0 0.0 0.00 0.00 0.00 9 1006.0
20260509042103 5 0 0.0 0.0 0.00 0.00 0.00 9 1005.7
20260509041555 5 0 0.0 0.0 0.00 0.00 0.00 9 1006.3
20260509041048 5 0 0.0 0.0 0.00 0.00 0.00 9 1006.7
20260509040541 5 0 0.0 0.0 0.00 0.00 0.00 9 1007.0
20260509040033 5 0 0.0 0.0 0.00 0.00 0.00 9 1006.0
20260509035526 5 0 0.0 0.0 0.00 0.00 0.00 9 1006.7
20260509035018 5 0 0.0 0.0 0.00 0.00 0.00 9 1006.8
20260509034510 5 0 0.0 0.0 0.00 0.00 0.00 9 1005.8
20260509034003 5 45 0.0 0.0 0.00 0.00 0.00 9 1005.9
20260509033456 5 315 0.0 0.0 0.00 0.00 0.00 9 1006.3
20260509032949 5 337 0.0 0.0 0.00 0.00 0.00 9 1006.3
20260509032442 5 0 0.0 0.0 0.00 0.00 0.00 9 1006.1
20260509031935 5 315 0.0 0.0 0.00 0.00 0.00 9 1006.7
20260509031428 5 0 0.0 0.0 0.00 0.00 0.00 9 1006.5
20260509030921 5 0 0.0 0.0 0.00 0.00 0.00 9 1005.3
20260509030414 6 0 0.0 0.0 0.00 0.00 0.00 9 1006.2
20260509025907 6 0 0.0 0.0 0.00 0.00 0.00 9 1006.5
20260509025400 5 315 0.0 0.0 0.00 0.00 0.00 9 1006.7
20260509024852 5 315 0.0 0.0 0.00 0.00 0.00 9 1006.1
20260509024345 5 0 0.0 0.0 0.00 0.00 0.00 9 1006.3
20260509023838 5 22 0.0 0.0 0.00 0.00 0.00 9 1005.5
20260509023331 6 0 0.0 0.0 0.00 0.00 0.00 9 1006.1
20260509022824 6 0 0.0 0.0 0.00 0.00 0.00 9 1005.6
20260509022317 6 0 0.0 0.0 0.00 0.00 0.00 9 1005.6
20260509021809 6 0 0.0 0.0 0.00 0.00 0.00 9 1006.0
20260509021301 6 45 0.0 0.0 0.00 0.00 0.00 9 1005.2
20260509020754 6 45 0.0 0.0 0.00 0.00 0.00 8 1006.1
20260509020247 6 45 0.0 0.0 0.00 0.00 0.00 9 1006.8
20260509015739 6 45 0.0 0.0 0.00 0.00 0.00 9 1006.1
20260509015232 6 45 0.0 0.0 0.00 0.00 0.00 9 1006.0
20260509014724 6 45 0.0 0.0 0.00 0.00 0.00 9 1006.2
20260509014217 6 45 0.0 0.0 0.00 0.00 0.00 9 1006.0
20260509013709 6 45 0.0 0.0 0.00 0.00 0.00 9 1005.3
20260509013202 6 45 0.0 0.0 0.00 0.00 0.00 9 1005.3
20260509012655 6 45 0.0 0.0 0.00 0.00 0.00 9 1005.2
20260509012148 6 45 0.0 0.0 0.00 0.00 0.00 8 1005.5
20260509011640 6 45 0.0 0.0 0.00 0.00 0.00 9 1005.3
20260509011132 6 45 0.0 0.0 0.00 0.00 0.00 8 1006.0
20260509010625 7 45 0.0 0.0 0.00 0.00 0.00 8 1005.6
20260509010117 7 45 0.0 0.0 0.00 0.00 0.00 8 1004.9
20260509005609 7 -1 0.0 0.0 0.00 0.00 0.00 8 1005.3
20260509005102 7 67 0.0 0.0 0.00 0.00 0.00 8 1006.7
20260509004554 7 45 0.0 0.0 0.00 0.00 0.00 9 1005.6
20260509004046 7 45 0.0 0.0 0.00 0.00 0.00 9 1005.0
20260509003539 7 67 0.0 0.0 0.00 0.00 0.00 8 1004.7
20260509003032 7 45 0.0 0.0 0.00 0.00 0.00 8 1004.8
20260509002524 7 -1 0.0 0.0 0.00 0.00 0.00 8 1005.1
20260509002017 7 90 0.0 0.0 0.00 0.00 0.00 8 1005.8
20260509001510 7 45 0.0 0.0 0.00 0.00 0.00 9 1005.5
20260509001003 7 45 0.0 0.0 0.00 0.00 0.00 9 1005.5
20260509000455 7 67 0.0 0.0 0.00 0.00 0.00 9 1004.7
20260508235948 7 45 8.0 9.7 0.00 0.00 0.00 9 1004.1
20260508235441 7 90 0.0 0.0 0.00 0.00 0.00 8 1004.5
20260508234934 7 45 8.0 4.8 0.00 0.00 0.00 8 1005.1
20260508234426 7 90 6.4 12.9 0.00 0.00 0.00 8 1005.1
20260508233919 7 45 0.0 0.0 0.00 0.00 0.00 8 1004.8
20260508233412 7 90 4.8 4.8 0.00 0.00 0.00 8 1005.3
20260508232905 7 -1 0.0 0.0 0.00 0.00 0.00 8 1004.2
20260508232358 7 -1 0.0 0.0 0.00 0.00 0.00 8 1005.1
20260508231851 7 -1 0.0 0.0 0.00 0.00 0.00 8 1004.7
20260508231343 7 90 0.0 0.0 0.00 0.00 0.00 8 1004.3
20260508230835 7 45 0.0 0.0 0.00 0.00 0.00 8 1004.8
20260508230327 7 67 0.0 0.0 0.00 0.00 0.00 8 1004.4
20260508225820 7 45 0.0 0.0 0.00 0.00 0.00 8 1004.1
20260508225313 7 45 0.0 0.0 0.00 0.00 0.00 8 1005.0
20260508224806 7 45 0.0 0.0 0.00 0.00 0.00 8 1004.9
20260508224258 7 45 0.0 0.0 0.00 0.00 0.00 8 1004.2
20260508223751 7 90 0.0 0.0 0.00 0.00 0.00 8 1004.9
20260508223244 7 90 0.0 0.0 0.00 0.00 0.00 8 1004.1
20260508222737 7 45 0.0 0.0 0.00 0.00 0.00 8 1004.4
20260508222230 7 -1 0.0 0.0 0.00 0.00 0.00 8 1004.1
20260508221723 7 90 0.0 0.0 0.00 0.00 0.00 8 1005.1